Location: Madrid
(40.4000°N, 3.6830°W)
Time: 07:24:27
(UTC+01:00)

ISS - Pass Details

Date: 25 November 2020
Orbit: 418 x 420 km, 51.6° (Epoch: 04 December)

Event Time Altitude Azimuth Distance (km) Brightness Sun altitude
Rises 18:53:34 0° 267° (W) 2,356 1.8 -11.9°
Reaches altitude 10° 18:55:57 10° 282° (WNW) 1,495 0.0 -12.3°
Maximum altitude 18:58:42 23° 337° (NNW) 943 -1.9 -12.8°
Enters shadow 19:00:49 14° 25° (NNE) 1,301 -1.6 -13.2°
